Regional Weather Roundup
Issued by NWS Wakefield, VA

Home | Current Version | Previous Version | Text Only | Print | Product List | Glossary Off
Versions: 1 2 3 4 5 6 7 8 9 10 11 12 13 14 15 16 17 18 19 20 21 22 23 24 25 26 27 28 29 30 31 32 33 34 35 36 37 38 39 40 41 42 43 44 45 46 47 48 49 50

000
ASUS41 KAKQ 050310
RWRAKQ

REGIONAL WEATHER ROUNDUP
NATIONAL WEATHER SERVICE WAKEFIELD VA
1000 PM EST WED MAR 04 2015

Note: "fair" indicates few or no clouds below 12,000 feet with no
significant weather and/or obstructions to visibility. * = Denotes
station may not report precipitation (e.g., rain,snow,etc.),
thunder or fog.

VAZ042-051-052>054-056-050400-
NORTHERN VIRGINIA

CITY           SKY/WX    TMP DP  RH WIND       PRES   REMARKS
WASH NATIONAL  LGT RAIN  45  43  93 CALM      29.95R FOG
DULLES         LGT RAIN  41  39  93 NW6       29.95R FOG
FORT BELVOIR   LGT RAIN  45  45 100 N1        29.93R FOG
QUANTICO       LGT RAIN  42  39  89 NE3       29.93R VSB 3/4
FREDERICKSBRG* NOT AVBL
STAFFORD*      NOT AVBL
WARRENTON      NOT AVBL
CULPEPER*      NOT AVBL
MANASSAS*      NOT AVBL
LEESBURG*      NOT AVBL
WINCHESTER     NOT AVBL
FRONT ROYAL*   CLOUDY    43  43 100 NE7       29.92S
LURAY*         RAIN      46  46 100 NE12      29.92R
$$

VAZ048-049-060>072-079>083-050400-
CENTRAL AND SOUTH CENTRAL VIRGINIA

CITY           SKY/WX    TMP DP  RH WIND       PRES   REMARKS
RICHMOND       LGT RAIN  53  50  89 CALM      29.91R
CHESTERFIELD*  CLOUDY    54  43  66 CALM      29.93R
PETERSBURG*    NOT AVBL
HANOVER        CLOUDY    50  50 100 CALM      29.92R FOG
TAPPAHANNOCK*  NOT AVBL
QUINTON*       CLOUDY    52  50  95 MISG      29.89S
CHARLOTTSVILLE LGT RAIN  47  45  93 CALM      29.90S VSB 1/2
GORDONSVILLE*  NOT AVBL
ORANGE*        NOT AVBL
LOUISA*        NOT AVBL
BUMPASS*       CLOUDY    49  48  99 W5        29.90R VSB 3/4
FARMVILLE*     RAIN      54  54  99 CALM      29.90R
CREWE*         CLOUDY    55  51  87 CALM      29.89R
FORT PICKETT*  NOT AVBL
CHASE CITY*    NOT AVBL
CLARKSVILLE*   CLOUDY    59  54  82 CALM      29.87S
SOUTH HILL*    CLOUDY    58  54  86 NE5       29.94R
LAWRENCEVILLE* CLOUDY    57  54  89 NE3       29.88S
EMPORIA*       NOT AVBL
$$

VAZ088>098-050400-
SOUTHEAST VIRGINIA

CITY           SKY/WX    TMP DP  RH WIND       PRES   REMARKS
NORFOLK        CLOUDY    45  41  86 N7        29.88R
VIRGINIA BEACH MOCLDY    49  45  86 S6        29.87R
NORFOLK NAVAL  FOG       49  44  83 N9        29.91R VSB 1/4
WEST POINT*    CLOUDY    54  51  90 CALM      29.92R
SALUDA*        NOT AVBL
NEWPORT NEWS   FOG       53  50  89 N5        29.90R VSB 1/2
LANGLEY AFB    CLOUDY    48  48 100 VRB2      29.89R FOG
FORT EUSTIS    CLOUDY    52  52 100 E2        29.87S
WILLIAMSBURG*  NOT AVBL
HR EXEC AP*    CLOUDY    52  46  82 NW6       29.90R
FRANKLIN*      NOT AVBL
WAKEFIELD      CLOUDY    54  51  90 CALM      29.90R
$$

VAZ020-022-025-037-045-050400-
WEST CENTRAL AND SOUTHWEST VIRGINIA

CITY           SKY/WX    TMP DP  RH WIND       PRES   REMARKS
STAUNTON*      NOT AVBL
WAYNESBORO*    NOT AVBL
HOT SPRINGS VA NOT AVBL
LYNCHBURG      CLOUDY    49  49 100 N5        29.92R FOG
DANVILLE       CLOUDY    57  50  77 NE5       29.87S
SOUTH BOSTON*  NOT AVBL
MARTINSVILLE   NOT AVBL
ROANOKE        LGT RAIN  46  45  96 NE3       29.93S FOG
BLACKSBURG     RAIN      45  44  99 W5        29.95R
DUBLIN*        NOT AVBL
MARION*        NOT AVBL
HILLSVILLE*    CLOUDY    48  47  96 NW9       29.90R
RICHLANDS*     NOT AVBL
WISE*          NOT AVBL
ABINGDON*      CLOUDY    50  49  96 CALM      29.90R
$$

MDZ021>025-VAZ099-100-050400-
SOUTHERN MARYLAND AND THE DELMARVA PENINSULA

CITY           SKY/WX    TMP DP  RH WIND       PRES   REMARKS
PATUXENT RIVER FOG       44  43  96 N3        29.89S VSB 1/2
BAY BRIDGE APT DRIZZLE   36  36 100 N7        29.93F
LEONARDTOWN    CLOUDY    48  46  93 CALM      29.90F VSB 1
DOVER          LGT RAIN  41  41 100 N5        29.93R FOG
GEORGETOWN     CLOUDY    43  43 100 NE6       29.89F FOG
EASTON         RAIN      44  44 100 N3        29.95F
CAMBRIDGE      CLOUDY    45  43  93 N5        29.89F VSB 1
SALISBURY      FOG       48  45  89 CALM      29.88F VSB 1/2
OCEAN CITY     FOG       42  42 100 SE5       29.91R VSB 1/4
WALLOPS ISLAND FOG       45  45 100 CALM      29.90F VSB 1/4
ACCOMACK*      FOG       46  45  93 NW3       29.90R VSB 1/2
$$

NCZ012>017-030>032-050400-
NORTH CENTRAL AND EASTERN NORTH CAROLINA

CITY           SKY/WX    TMP DP  RH WIND       PRES   REMARKS
ROANOKE RAPIDS FAIR      59  55  88 CALM      29.88S
RALEIGH        MOCLDY    66  53  63 S14       29.88F
ELIZABETH CITY CLEAR     63  57  81 S17       29.90R
AHOSKIE*       NOT AVBL
EDENTON*       CLEAR     63  57  82 S13       29.92R
CURRITUCK*     CLEAR     65  57  76 S7        29.90R
KILL DEVIL HLS NOT AVBL
MANTEO         CLEAR     59  55  88 SW17      29.93R
CAPE HATTERAS  CLOUDY    57  57 100 SW13      29.98S FOG
TARBORO*       NOT AVBL
GOLDSBORO      CLEAR     66  66  99 S10G16    29.91R
WASHINGTON     NOT AVBL
GREENVILLE     NOT AVBL
NEW BERN       CLEAR     65  60  84 SW10      29.97R
WILMINGTON     CLEAR     66  62  87 SW17G25   30.00R
$$

VAZ048-050400-
ELSEWHERE

CITY           SKY/WX    TMP DP  RH WIND       PRES   REMARKS
HARRISBURG PA  NOT AVBL
BALTIMORE      LGT RAIN  43  41  93 N3        29.94R FOG
ANNAPOLIS      LGT RAIN  39  38  96 NW3       29.94R
ANDREWS AFB    RAIN      43  43 100 N6        29.93R FOG
PHILADELPHIA   LGT RAIN  42  41  96 CALM      29.94F FOG
HENDERSON NC   MOCLDY    64  54  68 CALM      29.88S
GREENSBORO     PTCLDY    65  57  75 SW14G25   29.86S
ROCKY MOUNT    PTCLDY    67  59  75 S9        29.90R
$$

VAZ100-050400-
MARINE

STATION/POSITION TIME  TEMP    WIND        PRES    WAVE   SWELL
                       AIR SEA DIR/SP/G            HT/PER HT/PER
                 (UTC) (F)     (DEG/KT/KT) (MB)    (FT/S) (FT/S)
BRANDYWINE LGT   0300   43 31   70/  4/  5 1012.7F
CAPE MAY NJ      0300   42 35   CALM  /  1 1012.4F
LEWES DE         0300   38 32   90/  1/  2 1012.3F
15NM E FENWICK I 0300   37 36              1012.4R   3/ 7
OCEAN-CITY-INLET 0300   41 33  180/  2/  3 1012.7R
WACHAPREAGUE VA  0300   47 40  330/  2/  4 1012.3R
THOMAS POINT MD  0200   41 32  360/  9/  9 1014.3R
COVE POINT MD    0300   37     340/ 10/ 11 1012.4R
SOLOMONS ISLAND  0300      34                N/A
BISHOPS HEAD MD  0300   44 35   20/  3/  4 1011.5R
CAMBRIDGE MD     0300   42 32  320/  5/  6 1012.2F
LEWISETTA VA     0300   44 34     CALM     1012.0R
RAPPAHANNOCK LGT 0300          360/  8/ 11 1013.0R
STINGRAY PT      0300   37      60/  4/  4   N/A
YORK RVR RNG VA  0300   44     360/ 13/ 14 1011.8R
YORKTOWN VA      0300   47 35  310/  2/  4 1012.2S
DOMINION TERM VA 0300   47     240/  3/  5 1012.0R
KIPTOPEKE VA     0300      39   20/  3/  7   N/A
CHES BAY BRIDGE  0300   42 34  360/ 12/ 12 1011.3R
CAPE HENRY VA    0300   50     180/  7/  9 1009.9R
CHESAPEAKE LGHT  0200   52     170/ 14/ 15 1012.0F
WILLOUBY STN VA  0300   47      40/  9/ 10 1012.4R
S CRANEY ISL VA  0300          340/  7/ 10 1011.7R
CAPE HENRY BUOY  0300      36                N/A     3/ 8
1ST LANDING BUOY 0300   39     330/  4/ 17 1011.1R
OFFSHORE WE BUOY 0300      37                N/A     4/ 8   3/ 8
64NM E OF VA BCH 0300   57 52  210/ 23/ 27 1012.0R   7/ 7
DUCK PIER NC     0300   60 37  200/ 17/ 22 1011.7R
44100 DUCK FRF   0300      39                N/A     4/ 7   2/11
44056 DUCK FRF   0300      37                N/A     3/10   2/11
OREGON INLET NC  0300   51 49  200/ 20/ 23 1014.0S
HATTERAS NC      0300   57 46  210/ 13/ 16 1015.4R
CAPE LOOKOUT NC  0200   62     220/ 14/ 17 1015.6R
$$


USA.gov is the U.S. government's official web portal to all federal, state and local government web resources and services.